Weather History for KSTL - October, 2013

Change the Weather History Date:

Thursday, October 3, 2013

  Actual Average Record
Temperature  
Mean Temperature 79 °F 63 °F  
Max Temperature 88 °F 73 °F 94 °F (2006)
Min Temperature 70 °F 53 °F 31 °F (1974)
Degree Days  
Heating Degree Days 0 4  
Month to date heating degree days 0 12  
Since 1 July heating degree days 3 53  
Cooling Degree Days 14 3  
Month to date cooling degree days 35 9  
Year to date cooling degree days 1700 1610  
Growing Degree Days 29 (Base 50)    
Moisture  
Dew Point 66 °F    
Average Humidity 69    
Maximum Humidity 90    
Minimum Humidity 48    
Precipitation  
Precipitation 0.13 in 0.10 in 2.67 in (1986)
Month to date precipitation 0.31 0.31  
Year to date precipitation 37.66 31.19  
Snow  
Snow 0.00 in 0.00 in 0.00 in (2013)
Month to date snowfall 0.0 0.0  
Since 1 July snowfall 0.0 0.0  
Since 1 September snowfall 0.0 0.0  
Snow Depth 0.00 in    
Sea Level Pressure  
Sea Level Pressure 29.91 in    
Wind  
Wind Speed 10 mph (South)    
Max Wind Speed 18 mph    
Max Gust Speed 25 mph    
Visibility 10 miles    
Events Rain    
T = Trace of Precipitation, MM = Missing Value Source: NWS Daily Summary

Daily Weather History Graph

Daily Weather History Graph

Search for Another Location

Airport or City:

Trip Planner

Search our weather history database for the weather conditions in past years. The results will help you decide how hot, cold, wet, or windy it might be!

Date:

Astronomy

Oct. 03, 2013 Rise Set
Actual Time 6:59 AM CDT 6:40 PM CDT
Civil Twilight 6:32 AM CDT 7:07 PM CDT
Nautical Twilight 6:02 AM CDT 7:37 PM CDT
Astronomical Twilight 5:31 AM CDT 8:08 PM CDT
Moon 5:33 AM CDT (10/3) 5:49 PM CDT (10/3)
Length of Visible Light 12h 34m
Length of Day
11h 41m
Waning Crescent, 2% of the Moon is Illuminated
Oct 3
Waning Crescent
Oct 4
New
Oct 11
First Quarter
Oct 18
Full
Oct 26
Last Quarter

Hourly Weather History & Observations

Time (CDT) Temp. Heat Index Dew Point Humidity Pressure Visibility Wind Dir Wind Speed Gust Speed Precip Events Conditions
12:51 AM 72.0 °F - 68.0 °F 87% 29.94 in 10.0 mi South 9.2 mph - N/A   Mostly Cloudy
1:51 AM 72.0 °F - 66.9 °F 84% 29.95 in 10.0 mi South 5.8 mph - N/A   Mostly Cloudy
2:51 AM 72.0 °F - 66.9 °F 84% 29.94 in 10.0 mi South 5.8 mph - N/A   Mostly Cloudy
3:51 AM 73.0 °F - 66.0 °F 79% 29.94 in 10.0 mi SSW 6.9 mph - 0.00 in   Overcast
4:51 AM 72.0 °F - 66.0 °F 81% 29.94 in 10.0 mi South 6.9 mph - 0.01 in   Mostly Cloudy
5:51 AM 71.1 °F - 64.9 °F 81% 29.95 in 10.0 mi South 9.2 mph - N/A   Scattered Clouds
6:51 AM 70.0 °F - 64.0 °F 81% 29.95 in 10.0 mi South 6.9 mph - N/A   Scattered Clouds
7:51 AM 71.1 °F - 64.9 °F 81% 29.95 in 10.0 mi South 6.9 mph - N/A   Partly Cloudy
8:51 AM 73.9 °F - 66.0 °F 76% 29.95 in 10.0 mi South 9.2 mph - N/A   Scattered Clouds
9:51 AM 78.1 °F - 66.9 °F 68% 29.95 in 10.0 mi SSW 11.5 mph - N/A   Partly Cloudy
10:51 AM 82.0 °F 84.5 °F 66.9 °F 60% 29.94 in 10.0 mi South 12.7 mph - N/A   Scattered Clouds
11:51 AM 84.0 °F 86.3 °F 66.0 °F 55% 29.93 in 10.0 mi SSW 12.7 mph 20.7 mph N/A   Scattered Clouds
12:51 PM 82.9 °F 85.0 °F 66.0 °F 56% 29.91 in 10.0 mi South 11.5 mph 18.4 mph 0.00 in Rain Light Rain
1:51 PM 82.0 °F 84.5 °F 66.9 °F 60% 29.88 in 7.0 mi South 12.7 mph - 0.00 in Rain Light Rain
2:51 PM 87.1 °F 89.9 °F 66.9 °F 51% 29.86 in 10.0 mi SSW 13.8 mph 18.4 mph 0.00 in   Scattered Clouds
3:51 PM 87.1 °F 89.2 °F 66.0 °F 49% 29.86 in 10.0 mi South 16.1 mph 24.2 mph N/A   Scattered Clouds
4:51 PM 86.0 °F 87.6 °F 64.9 °F 49% 29.85 in 10.0 mi SSW 13.8 mph 23.0 mph N/A   Mostly Cloudy
5:51 PM 84.0 °F 85.8 °F 64.9 °F 53% 29.86 in 10.0 mi South 12.7 mph 23.0 mph N/A   Mostly Cloudy
6:51 PM 81.0 °F 83.0 °F 66.0 °F 60% 29.88 in 10.0 mi South 13.8 mph 19.6 mph N/A   Mostly Cloudy
7:51 PM 80.1 °F 82.3 °F 66.9 °F 64% 29.88 in 10.0 mi South 9.2 mph - N/A   Scattered Clouds
8:51 PM 79.0 °F - 66.9 °F 66% 29.89 in 10.0 mi South 12.7 mph - N/A   Partly Cloudy
9:51 PM 77.0 °F - 66.9 °F 71% 29.90 in 10.0 mi SSE 11.5 mph 20.7 mph N/A   Partly Cloudy
10:51 PM 75.9 °F - 66.9 °F 74% 29.91 in 10.0 mi SSE 9.2 mph 18.4 mph N/A   Clear
11:51 PM 75.0 °F - 66.9 °F 76% 29.90 in 10.0 mi South 11.5 mph 17.3 mph N/A   Clear